Simultaneous Nadir Overpasses (SNOs) Predictions

Prediction of SNOs between NOAA-20 and NOAA-19 Satellite Orbit:

Table of predicted SNOs for the next 14.0 days since TLE Epoch: 9/10/2022
Index Date (NOAA-20) Time (NOAA-20) Lat,Lon (NOAA-20) SZA (NOAA-20 ) Date (NOAA-19) Time (NOAA-19) Lat,Lon (NOAA-19) SZA (NOAA-19 ) Distance(km) Time Diff (sec)
1 09/13/2022 21:47:55 76.42,-164.93 73.42 09/13/2022 21:46:41 76.38,-165.32 73.43 11.33 74
2 09/13/2022 22:38:40 -76.46, 2.24 106.52 09/13/2022 22:37:42 -76.44, 2.18 106.52 2.65 58
3 09/13/2022 23:29:26 76.47, 169.52 73.51 09/13/2022 23:28:39 76.45, 169.49 73.51 1.96 47
4 09/14/2022 00:20:10 -76.47, -23.15 106.49 09/14/2022 00:19:41 -76.48, -23.18 106.47 1.35 29
5 09/14/2022 01:10:56 76.47, 144.14 73.54 09/14/2022 01:10:38 76.49, 144.13 73.56 1.55 18
6 09/14/2022 02:01:41 -76.51, -48.70 106.40 09/14/2022 02:01:40 -76.51, -48.55 106.42 4.01 1
7 09/14/2022 02:52:26 76.48, 118.75 73.57 09/14/2022 02:52:38 76.48, 118.59 73.58 4.12 12
8 09/14/2022 03:43:10 -76.52, -74.09 106.37 09/14/2022 03:43:39 -76.50, -74.09 106.40 2.27 29
9 09/14/2022 04:33:56 76.52, 93.20 73.65 09/14/2022 04:34:36 76.51, 93.23 73.63 1.83 40
10 09/14/2022 05:24:40 -76.52, -99.47 106.34 09/14/2022 05:25:38 -76.53, -99.45 106.35 1.10 58
11 09/14/2022 06:15:26 76.53, 67.81 73.69 09/14/2022 06:16:35 76.54, 67.86 73.68 2.21 69



Historial Predications of SNOs between NOAA-20 and NOAA-19
